Flag for Germany Weather past 2 weeks in Lahr, Baden-Württemberg, Germany

Now
40 °F

Fog.


Feels Like: 40 °F
Forecast: 40 / 67 °F
Wind: No wind

Location: Lahr

Current Time: Apr 22, 2015 at 7:00:49 AM

Latest Report: Apr 22, 2015 at 6:00 AM


Visibility: 15 mi

Pressure: 30.33 "Hg

Humidity: 96%

Dew point: 39 °F

Location of LahrLocation

Historic Weather in Lahr — Graph

°F

Lahr temperature yesterday

Maximum temperature yesterday: 71 °F (at 6:00 PM)
Minimum temperature yesterday: 38 °F (at 6:00 AM)
Average temperature yesterday: 55 °F

Past Weeks' High & Low Weather Summary

 TemperatureHumidityPressure
High80 °F (Apr 15, 5:00 PM)98% (Apr 18, 7:00 AM)30.65 "Hg (Apr 18, 7:00 AM)
Low28 °F (Apr 7, 7:00 AM)15% (Apr 15, 4:00 PM)29.89 "Hg (Apr 16, 6:00 PM)
Average54 °F60%30.26 "Hg
* Reported Apr 7 5:00 AM — Apr 22 5:00 AM, Lahr, Weather by CustomWeather, © 2015

Note: Actual official high and low records may vary slightly from our data, if they occured in-between our weather recording intervals... More about our weather records

Advertising

Lahr weather history for previous 24 hours

 ConditionsComfort  
Time TempWeatherWind HumidityBarometerVisibility
5:00 AM
Wed, Apr 22
42 °FPassing clouds.1 mph92%30.34 "Hg16 mi
4:00 AM42 °FPassing clouds.1 mph91%30.34 "Hg15 mi
3:00 AM46 °FClear.1 mph84%30.35 "Hg19 mi
2:00 AM46 °FClear.2 mph84%30.36 "Hg22 mi
1:00 AM47 °FClear.3 mph78%30.37 "Hg19 mi
12:00 AM53 °FClear.1 mph63%30.35 "Hg28 mi
11:00 PM
Tue, Apr 21
52 °FClear.2 mph66%30.34 "Hg25 mi
10:00 PM57 °FClear.1 mph56%30.34 "Hg25 mi
9:00 PM62 °FPassing clouds.2 mph45%30.32 "Hg40 mi
8:00 PM64 °FPassing clouds.2 mph47%30.31 "Hg34 mi
7:00 PM69 °FPassing clouds.5 mph38%30.30 "Hg31 mi
6:00 PM71 °FPassing clouds.6 mph31%30.30 "Hg28 mi
5:00 PM71 °FPassing clouds.6 mph32%30.32 "Hg25 mi
4:00 PM71 °FPassing clouds.7 mph34%30.32 "Hg19 mi
3:00 PM70 °FPassing clouds.6 mph37%30.34 "Hg28 mi
2:00 PM68 °FPassing clouds.7 mph37%30.35 "Hg34 mi
1:00 PM66 °FPassing clouds.5 mph36%30.37 "Hg34 mi
12:00 PM64 °FPassing clouds.6 mph45%30.38 "Hg34 mi
11:00 AM59 °FPassing clouds.5 mph51%30.39 "Hg34 mi
10:00 AM54 °FPassing clouds.3 mph62%30.39 "Hg37 mi
9:00 AM47 °FPassing clouds.2 mph74%30.40 "Hg37 mi
8:00 AM43 °FScattered clouds.1 mph79%30.39 "Hg37 mi
7:00 AM40 °FScattered clouds.1 mph88%30.37 "Hg31 mi
Weather by CustomWeather, © 2015

See weather overviewHow to use our weather pages